sat.trackr.live / text

‹ back to catalog

STARLINK-34262

NORAD 64688 · 2025-139AA

PAYLOAD ACTIVE UNKNOWN

§ Identity

Operator
Country
US
Launch date
2025-06-28
Launch site
AFETR
Launch vehicle
Mass (kg)
RCS (m²)

Purposes: comms

External: N2YO · Heavens-Above · Gunter

§ Orbital elements

Epoch: 2026-09-20T09:09:41.110848Z

Period
93.85 min
Inclination
53.1578°
Eccentricity
0.0000857
Mean motion
15.34398746 rev/d
Perigee alt
462.1 km
Apogee alt
463.3 km
Semi-major
6,840.8 km
B*
3.9619e-4
RAAN
298.3622°
Arg perigee
72.4517°
Mean anomaly
287.6579°
Rev number
7,021

§ Raw data

STARLINK-342621 64688U 25139AA  26263.38172582  .00013033  00000+0  39619-3 0  99972 64688  53.1578 298.3622 0000857  72.4517 287.6579 15.34398746 70215

JSON: /api/v1/satellites/64688 · /tle

For live sub-satellite position, see the globe view (requires WebGL).

§ Visibility from observer

Set your observer location to see the next 7 days of passes ≥ 10°. The values pass through the URL so the page stays shareable.

No JS? Fill the form by hand. The geolocation button needs JavaScript.